EW8275 Weather Reports


Display with metric or nautical units.
time (UTC)temp
F
wind
direction
speed
MPH
gust
MPH
rain 1hr
in
rain 24hr
in
rain mn
in
humidity
%
barometer
mb
20210923115541 68 217 3.0 10.0 0.00 0.00 0.00 75 1016.8
20210923115105 68 243 4.0 14.0 0.00 0.00 0.00 75 1016.8
20210923114546 68 241 7.0 14.0 0.00 0.00 0.00 72 1016.8
20210923114036 68 300 5.0 12.0 0.00 0.00 0.00 73 1016.8
20210923113538 69 271 5.0 12.0 0.00 0.00 0.00 72 1016.8
20210923113041 69 267 4.0 14.0 0.00 0.00 0.00 72 1016.8
20210923112536 69 318 4.0 14.0 0.00 0.00 0.00 71 1016.9
20210923112041 69 214 8.0 17.0 0.00 0.00 0.00 71 1016.9
20210923111550 69 217 6.0 17.0 0.00 0.00 0.00 72 1017.0
20210923111039 68 226 4.0 12.0 0.00 0.00 0.00 72 1016.9
20210923110534 68 211 5.0 10.0 0.00 0.00 0.00 73 1017.0
20210923110035 68 232 3.0 9.0 0.00 0.00 0.00 75 1017.1
20210923105533 67 241 4.0 10.0 0.00 0.00 0.00 78 1017.2
20210923105038 66 311 4.0 14.0 0.00 0.00 0.00 79 1017.2
20210923104559 65 310 6.0 16.0 0.00 0.00 0.00 78 1017.4
20210923104037 65 247 8.0 18.0 0.00 0.00 0.00 79 1017.5
20210923103548 64 291 5.0 18.0 0.00 0.00 0.00 80 1017.5
20210923103041 64 304 4.0 15.0 0.00 0.00 0.00 80 1017.5
20210923102548 64 277 6.0 13.0 0.00 0.00 0.00 80 1017.5
20210923102031 64 242 4.0 12.0 0.00 0.00 0.00 80 1017.5
20210923101543 64 236 6.0 16.0 0.00 0.00 0.00 80 1017.6
20210923101045 64 324 8.0 16.0 0.00 0.00 0.00 80 1017.5
20210923100539 64 273 3.0 14.0 0.00 0.00 0.00 81 1017.5
20210923100031 64 286 3.0 14.0 0.00 0.00 0.00 80 1017.4
20210923095530 64 263 8.0 14.0 0.00 0.00 0.00 80 1017.5
20210923095100 64 263 5.0 14.0 0.00 0.00 0.00 80 1017.6
20210923094540 64 244 6.0 12.0 0.00 0.00 0.00 81 1017.5
20210923094024 64 271 6.0 14.0 0.00 0.00 0.00 81 1017.5
20210923093535 65 279 6.0 14.0 0.00 0.00 0.00 81 1017.4
20210923093040 64 252 6.0 14.0 0.00 0.00 0.00 82 1017.3
20210923092543 64 235 4.0 17.0 0.00 0.00 0.00 82 1017.3
20210923092045 64 284 7.0 19.0 0.00 0.00 0.00 82 1017.3
20210923091545 64 252 7.0 19.0 0.00 0.00 0.00 84 1017.5
20210923091026 63 198 3.0 17.0 0.00 0.00 0.00 86 1017.5
20210923090551 63 345 6.0 17.0 0.00 0.00 0.00 86 1017.6
20210923090033 62 263 6.0 16.0 0.00 0.00 0.00 87 1017.7
20210923085550 62 271 6.0 16.0 0.00 0.00 0.00 88 1017.7
20210923085049 62 263 4.0 14.0 0.00 0.00 0.00 89 1017.6
20210923084543 62 275 5.0 19.0 0.00 0.00 0.00 90 1017.6
20210923084039 62 219 7.0 19.0 0.00 0.00 0.00 91 1017.5
20210923083605 62 267 5.0 16.0 0.00 0.00 0.00 91 1017.5
20210923083041 62 278 7.0 16.0 0.00 0.00 0.00 92 1017.5
20210923082540 62 312 4.0 11.0 0.00 0.00 0.00 93 1017.5
20210923082034 62 229 2.0 12.0 0.00 0.00 0.00 94 1017.4
20210923081547 62 250 4.0 15.0 0.00 0.00 0.00 94 1017.3
20210923081026 62 304 6.0 13.0 0.00 0.00 0.00 95 1017.2
20210923080552 61 217 3.0 17.0 0.00 0.00 0.00 95 1017.1
20210923080040 61 241 6.0 17.0 0.00 0.00 0.00 96 1017.0
20210923075541 61 224 4.0 8.0 0.00 0.00 0.00 96 1017.0
20210923075043 61 165 5.0 9.0 0.00 0.00 0.00 96 1016.9
20210923074550 60 208 3.0 7.0 0.00 0.00 0.00 96 1017.0
20210923074038 60 229 4.0 8.0 0.00 0.00 0.00 96 1017.2
20210923073533 60 217 4.0 8.0 0.00 0.00 0.00 96 1017.3
20210923073034 60 216 1.0 8.0 0.00 0.00 0.00 96 1017.5
20210923072603 60 232 3.0 8.0 0.00 0.00 0.00 96 1017.6
20210923072033 60 218 3.0 7.0 0.00 0.00 0.00 96 1017.6
20210923071534 60 231 5.0 8.0 0.00 0.00 0.00 97 1017.6
20210923071042 59 238 3.0 8.0 0.00 0.00 0.00 96 1017.6
20210923070543 59 210 4.0 7.0 0.00 0.00 0.00 96 1017.6
20210923070025 59 218 4.0 7.0 0.00 0.00 0.00 97 1017.7
20210923065536 59 236 3.0 8.0 0.00 0.00 0.00 96 1017.8
20210923065056 58 233 4.0 8.0 0.00 0.00 0.00 96 1017.9
20210923064548 58 238 4.0 7.0 0.00 0.00 0.00 96 1017.9
20210923064027 58 242 3.0 7.0 0.00 0.00 0.00 96 1018.0
20210923063556 58 221 2.0 6.0 0.00 0.00 0.00 96 1018.0
20210923063043 58 223 3.0 6.0 0.00 0.00 0.00 96 1018.0
20210923062542 58 240 3.0 6.0 0.00 0.00 0.00 96 1018.1
20210923062032 58 224 2.0 7.0 0.00 0.00 0.00 96 1018.1
20210923061539 58 242 3.0 7.0 0.00 0.00 0.00 96 1018.0
20210923061036 58 241 4.0 9.0 0.00 0.00 0.00 96 1017.9
20210923060544 57 219 3.0 9.0 0.00 0.00 0.00 96 1017.9
20210923060042 57 239 2.0 7.0 0.00 0.00 0.00 96 1018.0
20210923055556 57 227 3.0 7.0 0.00 0.00 0.00 96 1017.9
20210923055045 57 227 3.0 7.0 0.00 0.00 0.00 96 1017.9
20210923054534 56 219 3.0 5.0 0.00 0.00 0.00 95 1017.9
20210923054028 56 225 2.0 5.0 0.00 0.00 0.00 95 1018.0
20210923053548 56 229 2.0 5.0 0.00 0.00 0.00 95 1018.0
20210923053028 56 229 2.0 5.0 0.00 0.00 0.00 95 1018.0
20210923052545 56 217 2.0 5.0 0.00 0.00 0.00 95 1017.9
20210923052039 56 214 1.0 4.0 0.00 0.00 0.00 95 1018.1
20210923051541 56 214 1.0 4.0 0.00 0.00 0.00 95 1018.2
20210923051034 56 215 1.0 3.0 0.00 0.00 0.00 95 1018.2
20210923050532 56 214 1.0 4.0 0.00 0.00 0.00 95 1018.2
20210923050053 56 213 1.0 4.0 0.00 0.00 0.00 94 1018.1
20210923045544 56 213 2.0 4.0 0.00 0.00 0.00 94 1018.2
20210923045034 56 223 1.0 4.0 0.00 0.00 0.00 94 1018.4
20210923044551 56 223 1.0 4.0 0.00 0.00 0.00 94 1018.6
20210923044028 56 223 1.0 3.0 0.00 0.00 0.00 94 1018.7
20210923043548 56 223 1.0 3.0 0.00 0.00 0.00 94 1018.8
20210923043036 56 222 1.0 3.0 0.00 0.00 0.00 94 1018.9
20210923042542 56 223 1.0 3.0 0.00 0.00 0.00 94 1019.1
20210923042055 56 223 1.0 4.0 0.00 0.00 0.00 94 1019.2
20210923041529 56 222 2.0 4.0 0.00 0.00 0.00 94 1019.1
20210923041028 56 225 1.0 4.0 0.00 0.00 0.00 94 1019.2
20210923040549 56 224 2.0 5.0 0.00 0.00 0.00 94 1019.2
20210923040022 56 227 2.0 5.0 0.00 0.00 0.00 94 1019.2
20210923035548 56 226 2.0 5.0 0.00 0.00 0.00 94 1019.1
20210923035038 56 232 2.0 4.0 0.00 0.00 0.00 94 1019.0
20210923034553 56 232 3.0 5.0 0.00 0.00 0.00 93 1019.1
20210923034027 56 234 3.0 5.0 0.00 0.00 0.00 93 1019.1
20210923033554 56 231 1.0 5.0 0.00 0.00 0.00 93 1019.2
20210923033044 56 230 2.0 5.0 0.00 0.00 0.00 93 1019.2
20210923032542 56 225 2.0 5.0 0.00 0.00 0.00 93 1019.3
20210923032042 56 228 3.0 6.0 0.00 0.00 0.00 93 1019.3
20210923031535 56 234 4.0 6.0 0.00 0.00 0.00 93 1019.4
20210923031037 56 222 3.0 6.0 0.00 0.00 0.00 93 1019.5
20210923030548 55 223 2.0 5.0 0.00 0.00 0.00 93 1019.5
20210923030026 55 219 3.0 5.0 0.00 0.00 0.00 93 1019.4
20210923025544 55 221 2.0 6.0 0.00 0.00 0.00 93 1019.3
20210923025032 55 215 3.0 6.0 0.00 0.00 0.00 93 1019.5
20210923024544 55 219 2.0 6.0 0.00 0.00 0.00 93 1019.6
20210923024046 55 229 3.0 7.0 0.00 0.00 0.00 93 1019.6
20210923023533 55 221 3.0 7.0 0.00 0.00 0.00 93 1019.7
20210923023052 55 225 1.0 5.0 0.00 0.00 0.00 93 1019.8
20210923022531 55 220 2.0 6.0 0.00 0.00 0.00 92 1019.9
20210923022034 55 217 2.0 6.0 0.00 0.00 0.00 92 1020.0
20210923021541 55 224 2.0 6.0 0.00 0.00 0.00 92 1020.1
20210923021043 54 231 1.0 5.0 0.00 0.00 0.00 92 1020.2
20210923020531 54 232 1.0 5.0 0.00 0.00 0.00 92 1020.3
20210923020042 54 231 1.0 4.0 0.00 0.00 0.00 92 1020.4
20210923015547 54 231 0.0 3.0 0.00 0.00 0.00 92 1020.7
20210923015045 54 231 0.0 3.0 0.00 0.00 0.00 91 1020.7
20210923014537 54 232 0.0 4.0 0.00 0.00 0.00 91 1020.8
20210923014043 54 232 1.0 4.0 0.00 0.00 0.00 91 1020.8
20210923013536 54 232 0.0 2.0 0.00 0.00 0.00 91 1020.8
20210923013100 55 232 0.0 3.0 0.00 0.00 0.00 91 1020.8
20210923012540 55 232 0.0 3.0 0.00 0.00 0.00 91 1020.9
20210923012025 55 233 0.0 1.0 0.00 0.00 0.00 91 1021.0
20210923011553 55 233 0.0 3.0 0.00 0.00 0.00 91 1021.0
20210923011036 55 233 0.0 3.0 0.00 0.00 0.00 91 1021.1
20210923010536 55 249 0.0 3.0 0.00 0.00 0.00 91 1021.2
20210923010028 55 249 0.0 5.0 0.00 0.00 0.00 91 1021.2
20210923005541 55 249 1.0 5.0 0.00 0.00 0.00 91 1021.3
20210923005036 55 217 1.0 4.0 0.00 0.00 0.00 91 1021.2
20210923004602 55 202 1.0 5.0 0.00 0.00 0.00 91 1021.1
20210923004027 55 201 2.0 5.0 0.00 0.00 0.00 91 1021.1
20210923003539 55 209 1.0 4.0 0.00 0.00 0.00 90 1021.2
20210923003052 55 210 1.0 4.0 0.00 0.00 0.00 90 1021.2
20210923002544 55 214 1.0 4.0 0.00 0.00 0.00 90 1021.3
20210923002032 55 214 1.0 5.0 0.00 0.00 0.00 91 1021.4
20210923001600 55 215 1.0 5.0 0.00 0.00 0.00 91 1021.4
20210923001039 55 221 2.0 4.0 0.00 0.00 0.00 91 1021.5
20210923000532 55 220 0.0 3.0 0.00 0.00 0.00 90 1021.5
20210923000040 55 220 0.0 3.0 0.00 0.00 0.00 90 1021.6
20210922235533 55 220 0.0 3.0 0.00 0.00 0.00 90 1021.6
20210922235046 56 218 1.0 3.0 0.00 0.00 0.00 90 1021.5
20210922234532 56 219 0.0 3.0 0.00 0.00 0.00 90 1021.6
20210922234030 56 219 1.0 3.0 0.00 0.00 0.00 90 1021.8
20210922233545 56 219 1.0 4.0 0.00 0.00 0.00 90 1021.8
20210922233043 56 219 1.0 4.0 0.00 0.00 0.00 90 1021.7
20210922232559 56 217 2.0 4.0 0.00 0.00 0.00 90 1021.8
20210922232034 56 215 1.0 4.0 0.00 0.00 0.00 90 1021.9
20210922231539 56 215 2.0 4.0 0.00 0.00 0.00 90 1021.9
20210922231041 56 215 1.0 5.0 0.00 0.00 0.00 90 1022.1
20210922230541 56 213 1.0 3.0 0.00 0.00 0.00 90 1022.2
20210922230048 56 213 1.0 3.0 0.00 0.00 0.00 90 1022.3
20210922225544 56 211 0.0 2.0 0.00 0.00 0.00 89 1022.4
20210922225046 56 211 0.0 4.0 0.00 0.00 0.00 89 1022.3
20210922224542 56 211 1.0 4.0 0.00 0.00 0.00 90 1022.3
20210922224024 56 211 1.0 4.0 0.00 0.00 0.00 89 1022.4
20210922223602 56 211 1.0 4.0 0.00 0.00 0.00 89 1022.5
20210922223036 56 213 2.0 4.0 0.00 0.00 0.00 89 1022.3
20210922222548 56 215 2.0 5.0 0.00 0.00 0.00 90 1022.4
20210922222033 56 215 2.0 5.0 0.00 0.00 0.00 90 1022.4
20210922221530 56 217 1.0 5.0 0.00 0.00 0.00 90 1022.5
20210922221029 56 217 1.0 4.0 0.00 0.00 0.00 90 1022.5
20210922220531 56 217 1.0 5.0 0.00 0.00 0.00 90 1022.6
20210922220042 56 219 2.0 4.0 0.00 0.00 0.00 90 1022.6
20210922215536 56 219 1.0 6.0 0.00 0.00 0.00 90 1022.6
20210922215040 56 215 2.0 6.0 0.00 0.00 0.00 90 1022.6
20210922214535 56 216 3.0 5.0 0.00 0.00 0.00 90 1022.7
20210922214033 56 215 1.0 5.0 0.00 0.00 0.00 90 1022.7
20210922213536 56 213 2.0 5.0 0.00 0.00 0.00 90 1022.7
20210922213055 56 211 2.0 5.0 0.00 0.00 0.00 90 1022.8
20210922212536 56 217 2.0 5.0 0.00 0.00 0.00 90 1022.9
20210922212026 56 215 1.0 3.0 0.00 0.00 0.00 90 1023.0
20210922211538 56 215 1.0 4.0 0.00 0.00 0.00 90 1023.1
20210922211033 56 236 2.0 4.0 0.00 0.00 0.00 89 1023.1
20210922210538 56 247 1.0 3.0 0.00 0.00 0.00 89 1023.1
20210922210030 56 249 1.0 3.0 0.00 0.00 0.00 89 1023.1
20210922205559 56 250 1.0 3.0 0.00 0.00 0.00 89 1023.1
20210922205023 56 250 1.0 2.0 0.00 0.00 0.00 88 1023.3
20210922204533 56 250 0.0 1.0 0.00 0.00 0.00 88 1023.4
20210922204037 56 250 0.0 0.0 0.00 0.00 0.00 88 1023.4
20210922203546 56 250 0.0 1.0 0.00 0.00 0.00 88 1023.5
20210922203038 56 250 0.0 1.0 0.00 0.00 0.00 88 1023.5
20210922202533 57 250 0.0 2.0 0.00 0.00 0.00 88 1023.5
20210922202032 57 250 0.0 2.0 0.00 0.00 0.00 88 1023.4
20210922201550 57 250 0.0 2.0 0.00 0.00 0.00 87 1023.5
20210922201036 57 250 1.0 2.0 0.00 0.00 0.00 86 1023.7
20210922200542 57 250 0.0 2.0 0.00 0.00 0.00 85 1023.8
20210922200101 57 250 0.0 1.0 0.00 0.00 0.00 85 1023.8
20210922195538 57 250 0.0 3.0 0.00 0.00 0.00 85 1023.9
20210922195052 58 250 1.0 3.0 0.00 0.00 0.00 85 1023.9
20210922194540 58 250 0.0 0.0 0.00 0.00 0.00 84 1024.0
20210922194026 58 250 0.0 1.0 0.00 0.00 0.00 83 1024.0
20210922193537 58 250 0.0 0.0 0.00 0.00 0.00 83 1024.1
20210922193030 58 250 0.0 0.0 0.00 0.00 0.00 83 1024.3
20210922192535 59 250 0.0 0.0 0.00 0.00 0.00 82 1024.3
20210922192055 59 250 0.0 0.0 0.00 0.00 0.00 82 1024.3
20210922191548 59 250 0.0 0.0 0.00 0.00 0.00 81 1024.4
20210922191033 59 250 0.0 0.0 0.00 0.00 0.00 81 1024.3
20210922190553 60 250 0.0 0.0 0.00 0.00 0.00 81 1024.3
20210922190023 60 250 0.0 0.0 0.00 0.00 0.00 80 1024.3
20210922185541 60 250 0.0 1.0 0.00 0.00 0.00 80 1024.2
20210922185030 60 250 0.0 1.0 0.00 0.00 0.00 79 1024.2
20210922184538 60 250 0.0 2.0 0.00 0.00 0.00 79 1024.3
20210922184031 61 250 0.0 2.0 0.00 0.00 0.00 78 1024.3
20210922183543 61 250 0.0 1.0 0.00 0.00 0.00 78 1024.3
20210922183044 61 250 0.0 1.0 0.00 0.00 0.00 77 1024.4
20210922182538 61 250 0.0 1.0 0.00 0.00 0.00 77 1024.4
20210922182046 62 250 0.0 2.0 0.00 0.00 0.00 76 1024.5
20210922181536 62 250 0.0 3.0 0.00 0.00 0.00 76 1024.5
20210922181023 62 250 1.0 4.0 0.00 0.00 0.00 75 1024.6
20210922180550 62 250 0.0 4.0 0.00 0.00 0.00 74 1024.7
20210922180038 63 248 1.0 3.0 0.00 0.00 0.00 74 1024.8
20210922175551 63 248 0.0 1.0 0.00 0.00 0.00 73 1024.7
20210922175041 63 248 0.0 1.0 0.00 0.00 0.00 73 1024.6
20210922174530 64 247 0.0 2.0 0.00 0.00 0.00 72 1024.5
20210922174047 64 248 0.0 2.0 0.00 0.00 0.00 72 1024.6
20210922173543 64 248 1.0 5.0 0.00 0.00 0.00 71 1024.5
20210922173040 65 248 0.0 5.0 0.00 0.00 0.00 71 1024.4
20210922172543 65 247 0.0 3.0 0.00 0.00 0.00 71 1024.5
20210922172044 65 247 0.0 3.0 0.00 0.00 0.00 70 1024.5
20210922171539 65 246 1.0 4.0 0.00 0.00 0.00 70 1024.5
20210922171044 65 267 1.0 4.0 0.00 0.00 0.00 70 1024.6
20210922170535 66 267 1.0 6.0 0.00 0.00 0.00 69 1024.6
20210922170030 66 283 2.0 6.0 0.00 0.00 0.00 69 1024.7
20210922165546 66 281 1.0 6.0 0.00 0.00 0.00 69 1024.7
20210922165026 66 225 1.0 5.0 0.00 0.00 0.00 68 1024.8
20210922164611 66 225 2.0 5.0 0.00 0.00 0.00 68 1024.7
20210922164056 66 229 0.0 5.0 0.00 0.00 0.00 67 1024.6
20210922163529 66 229 2.0 8.0 0.00 0.00 0.00 67 1024.6
20210922163031 67 229 4.0 8.0 0.00 0.00 0.00 67 1024.7
20210922162553 67 236 4.0 8.0 0.00 0.00 0.00 66 1024.7
20210922162029 67 221 3.0 7.0 0.00 0.00 0.00 66 1024.8
20210922161544 67 207 3.0 7.0 0.00 0.00 0.00 66 1024.8
20210922161040 67 208 3.0 8.0 0.00 0.00 0.00 65 1024.9
20210922160539 67 214 5.0 8.0 0.00 0.00 0.00 64 1024.8
20210922160057 67 238 3.0 10.0 0.00 0.00 0.00 64 1024.7
20210922155555 67 230 5.0 10.0 0.00 0.00 0.00 63 1024.8
20210922155044 68 235 5.0 9.0 0.00 0.00 0.00 63 1024.9
20210922154534 68 237 5.0 9.0 0.00 0.00 0.00 63 1024.9
20210922154038 68 236 5.0 10.0 0.00 0.00 0.00 62 1024.9
20210922153541 68 186 4.0 10.0 0.00 0.00 0.00 63 1024.9
20210922153027 68 240 4.0 8.0 0.00 0.00 0.00 63 1025.0
20210922152553 68 233 5.0 8.0 0.00 0.00 0.00 63 1025.1
20210922152033 68 224 4.0 10.0 0.00 0.00 0.00 62 1025.2
20210922151554 68 249 5.0 10.0 0.00 0.00 0.00 62 1025.2
20210922151037 69 200 3.0 8.0 0.00 0.00 0.00 64 1025.2
20210922150606 69 238 3.0 9.0 0.00 0.00 0.00 64 1025.2
20210922150048 69 214 3.0 12.0 0.00 0.00 0.00 63 1025.3
20210922145541 69 215 5.0 12.0 0.00 0.00 0.00 62 1025.2
20210922145032 69 217 3.0 10.0 0.00 0.00 0.00 62 1025.3
20210922144555 69 228 4.0 10.0 0.00 0.00 0.00 63 1025.4
20210922144040 70 238 5.0 9.0 0.00 0.00 0.00 63 1025.5
20210922143552 70 236 3.0 8.0 0.00 0.00 0.00 63 1025.6
20210922143103 70 231 3.0 8.0 0.00 0.00 0.00 64 1025.7
20210922142547 70 178 4.0 6.0 0.00 0.00 0.00 64 1025.6
20210922142100 70 198 1.0 8.0 0.00 0.00 0.00 64 1025.7
20210922141557 70 186 5.0 8.0 0.00 0.00 0.00 63 1025.8
20210922141042 71 182 3.0 10.0 0.00 0.00 0.00 63 1025.8
20210922140540 71 232 5.0 10.0 0.00 0.00 0.00 62 1025.9
20210922140039 71 223 2.0 10.0 0.00 0.00 0.00 64 1026.0
20210922135602 71 257 5.0 10.0 0.00 0.00 0.00 62 1026.1
20210922135050 72 263 3.0 7.0 0.00 0.00 0.00 62 1026.1
20210922134542 72 218 2.0 7.0 0.00 0.00 0.00 63 1026.2
20210922134051 72 231 4.0 7.0 0.00 0.00 0.00 62 1026.2
20210922133538 72 223 3.0 7.0 0.00 0.00 0.00 63 1026.4
20210922133037 71 216 4.0 7.0 0.00 0.00 0.00 62 1026.4
20210922132555 72 229 5.0 7.0 0.00 0.00 0.00 63 1026.4
20210922132034 72 209 4.0 10.0 0.00 0.00 0.00 62 1026.5
20210922131542 72 254 5.0 10.0 0.00 0.00 0.00 63 1026.7
20210922131032 72 215 3.0 9.0 0.00 0.00 0.00 64 1026.6
20210922130557 72 243 3.0 10.0 0.00 0.00 0.00 61 1026.7
20210922130044 72 234 4.0 9.0 0.00 0.00 0.00 63 1026.8
20210922125539 72 182 3.0 10.0 0.00 0.00 0.00 62 1026.8
20210922125043 72 205 1.0 11.0 0.00 0.00 0.00 63 1026.9
20210922124527 72 199 5.0 11.0 0.00 0.00 0.00 61 1026.9
20210922124032 72 207 3.0 10.0 0.00 0.00 0.00 64 1026.9
20210922123556 72 218 5.0 10.0 0.00 0.00 0.00 64 1027.0
20210922123034 71 260 2.0 6.0 0.00 0.00 0.00 66 1026.9
20210922122549 71 226 3.0 7.0 0.00 0.00 0.00 68 1027.0
20210922122043 70 244 4.0 10.0 0.00 0.00 0.00 67 1027.1
20210922121549 70 223 3.0 10.0 0.00 0.00 0.00 67 1027.1
20210922121029 70 265 3.0 7.0 0.00 0.00 0.00 68 1027.1
20210922120534 70 196 2.0 7.0 0.00 0.00 0.00 68 1027.2
20210922120033 69 272 2.0 7.0 0.00 0.00 0.00 69 1027.3